﻿測定場所 (Monitoring sites),日付 (Measurement date),時間 (Measurement time),線量率 最大値 (max) μGy/h,線量率 最小値 (min) μGy/h,線量率 平均値 (average) μGy/h,
江戸川 (Edogawa),2024-04-07,23:01～24:00,0.0407,0.0362,0.0382,
江戸川 (Edogawa),2024-04-07,22:01～23:00,0.0408,0.0365,0.0385,
江戸川 (Edogawa),2024-04-07,21:01～22:00,0.0403,0.0357,0.0384,
江戸川 (Edogawa),2024-04-07,20:01～21:00,0.0406,0.0359,0.0385,
江戸川 (Edogawa),2024-04-07,19:01～20:00,0.0400,0.0361,0.0382,
江戸川 (Edogawa),2024-04-07,18:01～19:00,0.0409,0.0363,0.0387,
江戸川 (Edogawa),2024-04-07,17:01～18:00,0.0400,0.0363,0.0381,
江戸川 (Edogawa),2024-04-07,16:01～17:00,0.0410,0.0359,0.0383,
江戸川 (Edogawa),2024-04-07,15:01～16:00,0.0405,0.0363,0.0386,
江戸川 (Edogawa),2024-04-07,14:01～15:00,0.0412,0.0363,0.0390,
江戸川 (Edogawa),2024-04-07,13:01～14:00,0.0407,0.0356,0.0385,
江戸川 (Edogawa),2024-04-07,12:01～13:00,0.0412,0.0360,0.0388,
江戸川 (Edogawa),2024-04-07,11:01～12:00,0.0409,0.0374,0.0389,
江戸川 (Edogawa),2024-04-07,10:01～11:00,0.0415,0.0373,0.0388,
江戸川 (Edogawa),2024-04-07,09:01～10:00,0.0412,0.0367,0.0388,
江戸川 (Edogawa),2024-04-07,08:01～09:00,0.0415,0.0371,0.0394,
江戸川 (Edogawa),2024-04-07,07:01～08:00,0.0448,0.0381,0.0408,
江戸川 (Edogawa),2024-04-07,06:01～07:00,0.0464,0.0406,0.0439,
江戸川 (Edogawa),2024-04-07,05:01～06:00,0.0477,0.0420,0.0451,
江戸川 (Edogawa),2024-04-07,04:01～05:00,0.0453,0.0403,0.0425,
江戸川 (Edogawa),2024-04-07,03:01～04:00,0.0444,0.0372,0.0411,
江戸川 (Edogawa),2024-04-07,02:01～03:00,0.0414,0.0374,0.0392,
江戸川 (Edogawa),2024-04-07,01:01～02:00,0.0413,0.0365,0.0392,
江戸川 (Edogawa),2024-04-07,00:01～01:00,0.0414,0.0357,0.0389,
江戸川 (Edogawa),2024-04-06,23:01～24:00,0.0412,0.0364,0.0389,
江戸川 (Edogawa),2024-04-06,22:01～23:00,0.0415,0.0368,0.0389,
江戸川 (Edogawa),2024-04-06,21:01～22:00,0.0407,0.0363,0.0390,
江戸川 (Edogawa),2024-04-06,20:01～21:00,0.0416,0.0369,0.0389,
江戸川 (Edogawa),2024-04-06,19:01～20:00,0.0411,0.0367,0.0390,
江戸川 (Edogawa),2024-04-06,18:01～19:00,0.0406,0.0363,0.0386,
江戸川 (Edogawa),2024-04-06,17:01～18:00,0.0410,0.0367,0.0387,
江戸川 (Edogawa),2024-04-06,16:01～17:00,0.0409,0.0368,0.0387,
江戸川 (Edogawa),2024-04-06,15:01～16:00,0.0409,0.0363,0.0387,
江戸川 (Edogawa),2024-04-06,14:01～15:00,0.0403,0.0357,0.0384,
江戸川 (Edogawa),2024-04-06,13:01～14:00,0.0403,0.0363,0.0383,
江戸川 (Edogawa),2024-04-06,12:01～13:00,0.0403,0.0359,0.0381,
江戸川 (Edogawa),2024-04-06,11:01～12:00,0.0405,0.0358,0.0383,
江戸川 (Edogawa),2024-04-06,10:01～11:00,0.0402,0.0362,0.0383,
江戸川 (Edogawa),2024-04-06,09:01～10:00,0.0416,0.0360,0.0388,
江戸川 (Edogawa),2024-04-06,08:01～09:00,0.0407,0.0367,0.0389,
江戸川 (Edogawa),2024-04-06,07:01～08:00,0.0429,0.0367,0.0400,
江戸川 (Edogawa),2024-04-06,06:01～07:00,0.0431,0.0384,0.0404,
江戸川 (Edogawa),2024-04-06,05:01～06:00,0.0461,0.0394,0.0428,
江戸川 (Edogawa),2024-04-06,04:01～05:00,0.0456,0.0396,0.0418,
江戸川 (Edogawa),2024-04-06,03:01～04:00,0.0481,0.0413,0.0447,
江戸川 (Edogawa),2024-04-06,02:01～03:00,0.0500,0.0382,0.0439,
江戸川 (Edogawa),2024-04-06,01:01～02:00,0.0420,0.0369,0.0394,
江戸川 (Edogawa),2024-04-06,00:01～01:00,0.0421,0.0371,0.0396,
江戸川 (Edogawa),2024-04-05,23:01～24:00,0.0430,0.0372,0.0404,
江戸川 (Edogawa),2024-04-05,22:01～23:00,0.0426,0.0383,0.0405,
江戸川 (Edogawa),2024-04-05,21:01～22:00,0.0416,0.0366,0.0390,
江戸川 (Edogawa),2024-04-05,20:01～21:00,0.0412,0.0364,0.0385,
江戸川 (Edogawa),2024-04-05,19:01～20:00,0.0407,0.0370,0.0385,
江戸川 (Edogawa),2024-04-05,18:01～19:00,0.0414,0.0361,0.0384,
江戸川 (Edogawa),2024-04-05,17:01～18:00,0.0413,0.0360,0.0384,
江戸川 (Edogawa),2024-04-05,16:01～17:00,0.0425,0.0367,0.0394,
江戸川 (Edogawa),2024-04-05,15:01～16:00,0.0426,0.0356,0.0389,
江戸川 (Edogawa),2024-04-05,14:01～15:00,0.0408,0.0360,0.0383,
江戸川 (Edogawa),2024-04-05,13:01～14:00,0.0412,0.0360,0.0385,
江戸川 (Edogawa),2024-04-05,12:01～13:00,0.0416,0.0373,0.0389,
江戸川 (Edogawa),2024-04-05,11:01～12:00,0.0413,0.0371,0.0389,
江戸川 (Edogawa),2024-04-05,10:01～11:00,0.0412,0.0360,0.0388,
江戸川 (Edogawa),2024-04-05,09:01～10:00,0.0419,0.0367,0.0392,
江戸川 (Edogawa),2024-04-05,08:01～09:00,0.0423,0.0368,0.0396,
江戸川 (Edogawa),2024-04-05,07:01～08:00,0.0416,0.0370,0.0396,
江戸川 (Edogawa),2024-04-05,06:01～07:00,0.0455,0.0385,0.0417,
江戸川 (Edogawa),2024-04-05,05:01～06:00,0.0433,0.0372,0.0403,
江戸川 (Edogawa),2024-04-05,04:01～05:00,0.0414,0.0363,0.0387,
江戸川 (Edogawa),2024-04-05,03:01～04:00,0.0407,0.0363,0.0383,
江戸川 (Edogawa),2024-04-05,02:01～03:00,0.0412,0.0363,0.0384,
江戸川 (Edogawa),2024-04-05,01:01～02:00,0.0414,0.0366,0.0388,
江戸川 (Edogawa),2024-04-05,00:01～01:00,0.0409,0.0360,0.0388,
江戸川 (Edogawa),2024-04-04,23:01～24:00,0.0407,0.0363,0.0386,
江戸川 (Edogawa),2024-04-04,22:01～23:00,0.0412,0.0366,0.0384,
江戸川 (Edogawa),2024-04-04,21:01～22:00,0.0405,0.0360,0.0383,
江戸川 (Edogawa),2024-04-04,20:01～21:00,0.0413,0.0360,0.0384,
江戸川 (Edogawa),2024-04-04,19:01～20:00,0.0402,0.0355,0.0381,
江戸川 (Edogawa),2024-04-04,18:01～19:00,0.0401,0.0349,0.0381,
江戸川 (Edogawa),2024-04-04,17:01～18:00,0.0402,0.0350,0.0382,
江戸川 (Edogawa),2024-04-04,16:01～17:00,0.0406,0.0359,0.0383,
江戸川 (Edogawa),2024-04-04,15:01～16:00,0.0426,0.0369,0.0383,
江戸川 (Edogawa),2024-04-04,14:01～15:00,0.0408,0.0360,0.0384,
江戸川 (Edogawa),2024-04-04,13:01～14:00,0.0407,0.0360,0.0385,
江戸川 (Edogawa),2024-04-04,12:01～13:00,0.0405,0.0364,0.0386,
江戸川 (Edogawa),2024-04-04,11:01～12:00,0.0412,0.0359,0.0385,
江戸川 (Edogawa),2024-04-04,10:01～11:00,0.0419,0.0374,0.0397,
江戸川 (Edogawa),2024-04-04,09:01～10:00,0.0465,0.0385,0.0422,
江戸川 (Edogawa),2024-04-04,08:01～09:00,0.0475,0.0412,0.0452,
江戸川 (Edogawa),2024-04-04,07:01～08:00,0.0443,0.0357,0.0388,
江戸川 (Edogawa),2024-04-04,06:01～07:00,0.0416,0.0363,0.0387,
江戸川 (Edogawa),2024-04-04,05:01～06:00,0.0426,0.0370,0.0396,
江戸川 (Edogawa),2024-04-04,04:01～05:00,0.0475,0.0396,0.0431,
江戸川 (Edogawa),2024-04-04,03:01～04:00,0.0472,0.0411,0.0437,
江戸川 (Edogawa),2024-04-04,02:01～03:00,0.0510,0.0409,0.0462,
江戸川 (Edogawa),2024-04-04,01:01～02:00,0.0530,0.0472,0.0500,
江戸川 (Edogawa),2024-04-04,00:01～01:00,0.0503,0.0441,0.0468,
江戸川 (Edogawa),2024-04-03,23:01～24:00,0.0482,0.0413,0.0440,
江戸川 (Edogawa),2024-04-03,22:01～23:00,0.0443,0.0389,0.0415,
江戸川 (Edogawa),2024-04-03,21:01～22:00,0.0439,0.0379,0.0413,
江戸川 (Edogawa),2024-04-03,20:01～21:00,0.0426,0.0388,0.0405,
江戸川 (Edogawa),2024-04-03,19:01～20:00,0.0475,0.0393,0.0436,
江戸川 (Edogawa),2024-04-03,18:01～19:00,0.0496,0.0436,0.0467,
江戸川 (Edogawa),2024-04-03,17:01～18:00,0.0514,0.0445,0.0476,
江戸川 (Edogawa),2024-04-03,16:01～17:00,0.0514,0.0458,0.0487,
江戸川 (Edogawa),2024-04-03,15:01～16:00,0.0550,0.0482,0.0515,
江戸川 (Edogawa),2024-04-03,14:01～15:00,0.0537,0.0450,0.0498,
江戸川 (Edogawa),2024-04-03,13:01～14:00,0.0497,0.0444,0.0472,
江戸川 (Edogawa),2024-04-03,12:01～13:00,0.0501,0.0447,0.0477,
江戸川 (Edogawa),2024-04-03,11:01～12:00,0.0489,0.0404,0.0442,
江戸川 (Edogawa),2024-04-03,10:01～11:00,0.0429,0.0379,0.0402,
江戸川 (Edogawa),2024-04-03,09:01～10:00,0.0421,0.0376,0.0398,
江戸川 (Edogawa),2024-04-03,08:01～09:00,0.0419,0.0374,0.0398,
江戸川 (Edogawa),2024-04-03,07:01～08:00,0.0417,0.0376,0.0393,
江戸川 (Edogawa),2024-04-03,06:01～07:00,0.0405,0.0361,0.0390,
江戸川 (Edogawa),2024-04-03,05:01～06:00,0.0419,0.0374,0.0392,
江戸川 (Edogawa),2024-04-03,04:01～05:00,0.0412,0.0369,0.0392,
江戸川 (Edogawa),2024-04-03,03:01～04:00,0.0422,0.0371,0.0396,
江戸川 (Edogawa),2024-04-03,02:01～03:00,0.0423,0.0373,0.0394,
江戸川 (Edogawa),2024-04-03,01:01～02:00,0.0425,0.0364,0.0393,
江戸川 (Edogawa),2024-04-03,00:01～01:00,0.0412,0.0365,0.0390,
江戸川 (Edogawa),2024-04-02,23:01～24:00,0.0410,0.0370,0.0393,
江戸川 (Edogawa),2024-04-02,22:01～23:00,0.0420,0.0363,0.0391,
江戸川 (Edogawa),2024-04-02,21:01～22:00,0.0410,0.0364,0.0390,
江戸川 (Edogawa),2024-04-02,20:01～21:00,0.0415,0.0373,0.0390,
江戸川 (Edogawa),2024-04-02,19:01～20:00,0.0415,0.0372,0.0390,
江戸川 (Edogawa),2024-04-02,18:01～19:00,0.0425,0.0367,0.0388,
江戸川 (Edogawa),2024-04-02,17:01～18:00,0.0416,0.0367,0.0389,
江戸川 (Edogawa),2024-04-02,16:01～17:00,0.0420,0.0363,0.0389,
江戸川 (Edogawa),2024-04-02,15:01～16:00,0.0410,0.0360,0.0385,
江戸川 (Edogawa),2024-04-02,14:01～15:00,0.0420,0.0370,0.0390,
江戸川 (Edogawa),2024-04-02,13:01～14:00,0.0416,0.0369,0.0392,
江戸川 (Edogawa),2024-04-02,12:01～13:00,0.0409,0.0360,0.0389,
江戸川 (Edogawa),2024-04-02,11:01～12:00,0.0417,0.0369,0.0391,
江戸川 (Edogawa),2024-04-02,10:01～11:00,0.0409,0.0369,0.0390,
江戸川 (Edogawa),2024-04-02,09:01～10:00,0.0411,0.0371,0.0390,
江戸川 (Edogawa),2024-04-02,08:01～09:00,0.0410,0.0367,0.0387,
江戸川 (Edogawa),2024-04-02,07:01～08:00,0.0408,0.0363,0.0388,
江戸川 (Edogawa),2024-04-02,06:01～07:00,0.0410,0.0361,0.0384,
江戸川 (Edogawa),2024-04-02,05:01～06:00,0.0405,0.0360,0.0386,
江戸川 (Edogawa),2024-04-02,04:01～05:00,0.0408,0.0363,0.0386,
江戸川 (Edogawa),2024-04-02,03:01～04:00,0.0409,0.0360,0.0384,
江戸川 (Edogawa),2024-04-02,02:01～03:00,0.0409,0.0354,0.0385,
江戸川 (Edogawa),2024-04-02,01:01～02:00,0.0407,0.0363,0.0384,
江戸川 (Edogawa),2024-04-02,00:01～01:00,0.0408,0.0367,0.0384,
江戸川 (Edogawa),2024-04-01,23:01～24:00,0.0415,0.0367,0.0385,
江戸川 (Edogawa),2024-04-01,22:01～23:00,0.0405,0.0360,0.0385,
江戸川 (Edogawa),2024-04-01,21:01～22:00,0.0408,0.0364,0.0384,
江戸川 (Edogawa),2024-04-01,20:01～21:00,0.0408,0.0369,0.0386,
江戸川 (Edogawa),2024-04-01,19:01～20:00,0.0439,0.0371,0.0404,
江戸川 (Edogawa),2024-04-01,18:01～19:00,0.0494,0.0411,0.0447,
江戸川 (Edogawa),2024-04-01,17:01～18:00,0.0475,0.0391,0.0429,
江戸川 (Edogawa),2024-04-01,16:01～17:00,0.0453,0.0401,0.0428,
江戸川 (Edogawa),2024-04-01,15:01～16:00,0.0457,0.0362,0.0403,
江戸川 (Edogawa),2024-04-01,14:01～15:00,0.0413,0.0372,0.0391,
江戸川 (Edogawa),2024-04-01,13:01～14:00,0.0413,0.0376,0.0390,
江戸川 (Edogawa),2024-04-01,12:01～13:00,0.0409,0.0363,0.0388,
江戸川 (Edogawa),2024-04-01,11:01～12:00,0.0412,0.0357,0.0388,
江戸川 (Edogawa),2024-04-01,10:01～11:00,0.0413,0.0370,0.0390,
江戸川 (Edogawa),2024-04-01,09:01～10:00,0.0418,0.0377,0.0403,
江戸川 (Edogawa),2024-04-01,08:01～09:00,0.0489,0.0398,0.0441,
江戸川 (Edogawa),2024-04-01,07:01～08:00,0.0579,0.0478,0.0528,
江戸川 (Edogawa),2024-04-01,06:01～07:00,0.0599,0.0406,0.0526,
江戸川 (Edogawa),2024-04-01,05:01～06:00,0.0432,0.0384,0.0404,
江戸川 (Edogawa),2024-04-01,04:01～05:00,0.0415,0.0370,0.0391,
江戸川 (Edogawa),2024-04-01,03:01～04:00,0.0415,0.0361,0.0391,
江戸川 (Edogawa),2024-04-01,02:01～03:00,0.0409,0.0368,0.0392,
江戸川 (Edogawa),2024-04-01,01:01～02:00,0.0419,0.0367,0.0392,
江戸川 (Edogawa),2024-04-01,00:01～01:00,0.0423,0.0363,0.0391,
